Overview Statistics Trail Chart Weather Telemetry Raw packets
 

This is the latest recevied weather packets stored in our database for station/object N9BLE. If no packets are shown the sender has not sent any weather packets the latest 10 day(s).

<< 3 4 5 6 7 8 9 >>
Time Temp. Humidity Pressure Rain* Wind** Luminosity Snow
1778011176 12.78° C 33% 1013.3 hPa 0 mm - 178 W/m² -
1778010874 12.78° C 34% 1013.3 hPa 0 mm - 187 W/m² -
1778010571 12.78° C 33% 1013.4 hPa 0 mm - 203 W/m² -
1778010269 12.78° C 34% 1013.5 hPa 0 mm - 194 W/m² -
1778009968 13.33° C 32% 1013.3 hPa 0 mm - 225 W/m² -
1778009666 13.33° C 32% 1013.4 hPa 0 mm - 241 W/m² -
1778009364 12.78° C 33% 1013.2 hPa 0 mm - 232 W/m² -
1778009062 13.33° C 34% 1013.3 hPa 0 mm - 235 W/m² -
1778008759 12.78° C 34% 1013.3 hPa 0 mm - 248 W/m² -
1778008458 12.78° C 29% 1013.3 hPa 0 mm - 237 W/m² -
1778008154 13.33° C 33% 1013.4 hPa 0 mm - 253 W/m² -
1778007850 13.89° C 35% 1013.4 hPa 0 mm - 245 W/m² -
1778007545 13.89° C 33% 1013.5 hPa 0 mm - 313 W/m² -
1778007242 13.33° C 35% 1013.6 hPa 0 mm - 353 W/m² -
1778006938 12.78° C 34% 1013.4 hPa 0 mm - 283 W/m² -
1778006635 13.33° C 33% 1013.5 hPa 0 mm - 256 W/m² -
1778006333 13.33° C 35% 1013.4 hPa 0 mm - 261 W/m² -
1778006029 13.33° C 33% 1013.3 hPa 0 mm - 242 W/m² -
1778005726 13.33° C 34% 1013.6 hPa 0 mm - 250 W/m² -
1778005423 13.33° C 35% 1013.3 hPa 0 mm - 276 W/m² -
1778005120 13.33° C 34% 1013.4 hPa 0 mm - 280 W/m² -
1778004817 13.33° C 34% 1013.7 hPa 0 mm - 281 W/m² -
1778004513 12.78° C 34% 1013.3 hPa 0 mm - 295 W/m² -
1778004210 12.78° C 32% 1013.2 hPa 0 mm - 281 W/m² -
1778003906 13.33° C 32% 1013.5 hPa 0 mm - 314 W/m² -

* Rain latest hour (hover to see other rain measurements)
** Current wind speed in m/s (hover to see current wind gust speed)